AUA59LW LOWW-LOWI

Flight info

Callsign AUA59LW
Flight time 1h 9m
Altitude 30000
Route SOVIL DCT SITNI DCT BAGSI DCT NANIT NANIT2A
Aircraft E190/M-SDE3GILORVW/S

Departure

Time 2026-05-06 20:08
Airport Vienna International Airport (LOWW)

Arrival

Time 2026-05-06 21:18
Airport Innsbruck Airport (LOWI)
Time Latitude Longitude Altitude Speed Heading
2026-05-06 19:36 48.11456 16.57078 607 ft 0 kts 206°
2026-05-06 19:51 48.11449 16.57073 607 ft 2 kts 206°
2026-05-06 19:51 48.11424 16.57057 607 ft 7 kts 198°
2026-05-06 19:51 48.11357 16.57060 607 ft 10 kts 174°
2026-05-06 19:51 48.11305 16.57008 607 ft 10 kts 268°
2026-05-06 19:52 48.11328 16.56911 607 ft 9 kts 297°
2026-05-06 19:52 48.11359 16.56814 607 ft 12 kts 296°
2026-05-06 19:52 48.11412 16.56652 608 ft 21 kts 296°
2026-05-06 19:52 48.11491 16.56407 607 ft 28 kts 296°
2026-05-06 19:53 48.11578 16.56144 607 ft 26 kts 296°
2026-05-06 19:53 48.11660 16.55888 607 ft 27 kts 296°
2026-05-06 19:53 48.11743 16.55633 607 ft 27 kts 296°
2026-05-06 19:53 48.11823 16.55390 607 ft 26 kts 296°
2026-05-06 19:54 48.11896 16.55157 607 ft 24 kts 297°
2026-05-06 19:54 48.11971 16.54933 608 ft 24 kts 295°
2026-05-06 19:54 48.12046 16.54704 607 ft 24 kts 296°
2026-05-06 19:54 48.12122 16.54468 607 ft 25 kts 296°
2026-05-06 19:55 48.12189 16.54265 607 ft 18 kts 295°
2026-05-06 19:55 48.12246 16.54088 607 ft 19 kts 296°
2026-05-06 19:55 48.12304 16.53909 607 ft 19 kts 297°
2026-05-06 19:55 48.12355 16.53754 607 ft 12 kts 296°
2026-05-06 19:56 48.12386 16.53660 607 ft 5 kts 296°
2026-05-06 19:56 48.12389 16.53653 607 ft 0 kts 296°
2026-05-06 19:56 48.12389 16.53652 607 ft 0 kts 297°
2026-05-06 19:57 48.12396 16.53630 607 ft 4 kts 296°
2026-05-06 19:57 48.12418 16.53567 607 ft 9 kts 300°
2026-05-06 19:57 48.12429 16.53487 607 ft 5 kts 259°
2026-05-06 19:58 48.12420 16.53458 607 ft 0 kts 226°
2026-05-06 20:00 48.12417 16.53454 607 ft 2 kts 221°
2026-05-06 20:01 48.12392 16.53433 607 ft 2 kts 206°
2026-05-06 20:01 48.12391 16.53432 607 ft 0 kts 206°
2026-05-06 20:05 48.12389 16.53431 607 ft 1 kts 207°
2026-05-06 20:05 48.12361 16.53410 607 ft 9 kts 206°
2026-05-06 20:06 48.12278 16.53374 607 ft 9 kts 158°
2026-05-06 20:06 48.12257 16.53408 607 ft 1 kts 118°
2026-05-06 20:06 48.12252 16.53422 607 ft 0 kts 116°
2026-05-06 20:07 48.12220 16.53521 607 ft 39 kts 117°
2026-05-06 20:07 48.11991 16.54230 608 ft 110 kts 118°
2026-05-06 20:08 48.11575 16.55517 637 ft 159 kts 117°
2026-05-06 20:08 48.11108 16.57082 1104 ft 173 kts 120°
2026-05-06 20:08 48.10582 16.58679 1863 ft 173 kts 125°
2026-05-06 20:08 48.10048 16.60290 2531 ft 186 kts 127°
2026-05-06 20:09 48.09415 16.62115 3092 ft 209 kts 126°
2026-05-06 20:09 48.08740 16.64116 3799 ft 223 kts 125°
2026-05-06 20:09 48.08050 16.66187 4602 ft 230 kts 124°
2026-05-06 20:09 48.07344 16.68320 4937 ft 229 kts 124°
2026-05-06 20:10 48.06463 16.70244 4919 ft 218 kts 153°
2026-05-06 20:10 48.05064 16.70800 5013 ft 219 kts 193°
2026-05-06 20:10 48.03672 16.69723 5051 ft 241 kts 227°
2026-05-06 20:10 48.02979 16.67416 5019 ft 252 kts 262°
2026-05-06 20:11 48.03384 16.64881 5143 ft 266 kts 293°
2026-05-06 20:11 48.04227 16.62314 5776 ft 276 kts 284°
2026-05-06 20:11 48.04676 16.59594 6778 ft 271 kts 276°
2026-05-06 20:11 48.04900 16.56854 7811 ft 267 kts 272°
2026-05-06 20:12 48.05011 16.54125 8711 ft 269 kts 269°
2026-05-06 20:12 48.05066 16.51344 9565 ft 273 kts 269°
2026-05-06 20:12 48.05094 16.48516 10401 ft 278 kts 268°
2026-05-06 20:12 48.05107 16.45584 11130 ft 288 kts 268°
2026-05-06 20:13 48.05113 16.42549 11800 ft 300 kts 267°
2026-05-06 20:13 48.05115 16.39401 12506 ft 310 kts 267°
2026-05-06 20:13 48.05115 16.36199 13340 ft 315 kts 267°
2026-05-06 20:13 48.05112 16.32916 14260 ft 319 kts 266°
2026-05-06 20:14 48.05109 16.29640 15185 ft 321 kts 266°
2026-05-06 20:14 48.05105 16.26317 16063 ft 324 kts 266°
2026-05-06 20:14 48.05100 16.22945 16899 ft 327 kts 266°
2026-05-06 20:14 48.05093 16.19535 17682 ft 332 kts 266°
2026-05-06 20:15 48.05086 16.16099 18426 ft 337 kts 266°
2026-05-06 20:15 48.05077 16.12586 19202 ft 341 kts 266°
2026-05-06 20:15 48.05068 16.09071 19965 ft 344 kts 266°
2026-05-06 20:15 48.05057 16.05507 20709 ft 348 kts 266°
2026-05-06 20:16 48.05045 16.01896 21454 ft 351 kts 266°
2026-05-06 20:16 48.05031 15.98254 22156 ft 355 kts 266°
2026-05-06 20:16 48.05023 15.94588 22771 ft 359 kts 266°
2026-05-06 20:16 48.05010 15.90851 23486 ft 363 kts 266°
2026-05-06 20:17 48.04993 15.87057 24198 ft 366 kts 266°
2026-05-06 20:17 48.04975 15.83294 24936 ft 368 kts 266°
2026-05-06 20:17 48.04955 15.79471 25706 ft 368 kts 266°
2026-05-06 20:17 48.04933 15.75650 26396 ft 370 kts 266°
2026-05-06 20:18 48.04910 15.71822 27084 ft 372 kts 266°
2026-05-06 20:18 48.04886 15.67993 27703 ft 374 kts 266°
2026-05-06 20:18 48.04859 15.64094 28303 ft 377 kts 266°
2026-05-06 20:18 48.04832 15.60198 28892 ft 380 kts 266°
2026-05-06 20:19 48.04803 15.56237 29497 ft 382 kts 266°
2026-05-06 20:19 48.04768 15.52320 29738 ft 381 kts 266°
2026-05-06 20:19 48.04732 15.48301 29775 ft 395 kts 266°
2026-05-06 20:19 48.04697 15.44171 29782 ft 409 kts 266°
2026-05-06 20:20 48.04658 15.35560 29771 ft 416 kts 268°
2026-05-06 20:20 48.04812 15.26939 29786 ft 415 kts 267°
2026-05-06 20:21 48.04946 15.18390 29773 ft 413 kts 267°
2026-05-06 20:21 48.05074 15.09806 29779 ft 415 kts 267°
2026-05-06 20:22 48.05170 15.03160 29771 ft 415 kts 267°
2026-05-06 20:22 48.05267 14.95922 29743 ft 411 kts 268°
2026-05-06 20:23 48.05377 14.87406 29744 ft 411 kts 268°
2026-05-06 20:23 48.05466 14.78921 29725 ft 411 kts 267°
2026-05-06 20:24 48.05535 14.70386 29713 ft 410 kts 267°
2026-05-06 20:24 48.05599 14.61872 29698 ft 409 kts 267°
2026-05-06 20:25 48.05655 14.53446 29684 ft 407 kts 267°
2026-05-06 20:25 48.05690 14.47692 29697 ft 409 kts 267°
2026-05-06 20:26 48.05737 14.39190 29702 ft 408 kts 266°
2026-05-06 20:26 48.05587 14.30748 29710 ft 403 kts 257°
2026-05-06 20:27 48.03824 14.22920 29778 ft 401 kts 241°
2026-05-06 20:27 48.01314 14.15432 29839 ft 404 kts 242°
2026-05-06 20:28 47.98828 14.07946 29840 ft 403 kts 242°
2026-05-06 20:28 47.96335 14.00452 29848 ft 405 kts 242°
2026-05-06 20:29 47.93847 13.92995 29854 ft 404 kts 242°
2026-05-06 20:29 47.91398 13.85674 29853 ft 387 kts 242°
2026-05-06 20:30 47.87780 13.74903 29652 ft 390 kts 241°
2026-05-06 20:30 47.86579 13.71333 29235 ft 388 kts 241°
2026-05-06 20:31 47.85384 13.67789 28821 ft 385 kts 241°
2026-05-06 20:31 47.84185 13.64239 28392 ft 382 kts 241°
2026-05-06 20:31 47.83009 13.60757 27986 ft 381 kts 241°
2026-05-06 20:31 47.81815 13.57231 27565 ft 379 kts 241°
2026-05-06 20:32 47.80649 13.53790 27161 ft 377 kts 241°
2026-05-06 20:32 47.79466 13.50305 26744 ft 376 kts 241°
2026-05-06 20:32 47.78299 13.46871 26334 ft 375 kts 241°
2026-05-06 20:32 47.77121 13.43410 25918 ft 372 kts 241°
2026-05-06 20:33 47.75973 13.40039 25523 ft 370 kts 242°
2026-05-06 20:33 47.74816 13.36649 25115 ft 369 kts 241°
2026-05-06 20:33 47.73653 13.33247 24721 ft 367 kts 240°
2026-05-06 20:33 47.72505 13.29890 24318 ft 364 kts 241°
2026-05-06 20:34 47.71367 13.26567 23924 ft 363 kts 241°
2026-05-06 20:34 47.70238 13.23275 23528 ft 361 kts 241°
2026-05-06 20:34 47.69101 13.19963 23131 ft 360 kts 241°
2026-05-06 20:34 47.67970 13.16674 22733 ft 356 kts 241°
2026-05-06 20:35 47.66848 13.13417 22346 ft 354 kts 240°
2026-05-06 20:35 47.65740 13.10201 21961 ft 353 kts 240°
2026-05-06 20:35 47.64629 13.06981 21570 ft 351 kts 240°
2026-05-06 20:35 47.63519 13.03768 21189 ft 348 kts 240°
2026-05-06 20:36 47.62436 13.00637 20812 ft 346 kts 240°
2026-05-06 20:36 47.61333 12.97456 20426 ft 344 kts 240°
2026-05-06 20:36 47.60254 12.94343 20058 ft 342 kts 240°
2026-05-06 20:36 47.59175 12.91235 19687 ft 341 kts 240°
2026-05-06 20:37 47.58087 12.88103 19340 ft 340 kts 240°
2026-05-06 20:37 47.57010 12.84998 18969 ft 339 kts 240°
2026-05-06 20:37 47.55956 12.81945 18857 ft 335 kts 240°
2026-05-06 20:37 47.54894 12.78863 18838 ft 337 kts 240°
2026-05-06 20:38 47.53830 12.75773 18853 ft 336 kts 240°
2026-05-06 20:38 47.52745 12.72738 18847 ft 338 kts 240°
2026-05-06 20:38 47.51651 12.69647 18844 ft 338 kts 240°
2026-05-06 20:38 47.50579 12.66603 18855 ft 339 kts 240°
2026-05-06 20:39 47.49486 12.63495 18839 ft 338 kts 240°
2026-05-06 20:39 47.48404 12.60415 18847 ft 337 kts 240°
2026-05-06 20:39 47.47330 12.57363 18854 ft 336 kts 240°
2026-05-06 20:39 47.46251 12.54298 18847 ft 339 kts 240°
2026-05-06 20:40 47.45163 12.51214 18851 ft 338 kts 240°
2026-05-06 20:40 47.44097 12.48192 18802 ft 327 kts 240°
2026-05-06 20:40 47.43037 12.45193 18236 ft 339 kts 240°
2026-05-06 20:40 47.41951 12.42125 17664 ft 341 kts 240°
2026-05-06 20:41 47.40871 12.39073 17038 ft 335 kts 240°
2026-05-06 20:41 47.39834 12.36031 16412 ft 331 kts 247°
2026-05-06 20:41 47.39545 12.32677 15825 ft 336 kts 270°
2026-05-06 20:41 47.39828 12.29297 15526 ft 333 kts 272°
2026-05-06 20:42 47.40137 12.25910 15198 ft 336 kts 273°
2026-05-06 20:42 47.40454 12.22506 14813 ft 336 kts 273°
2026-05-06 20:42 47.40772 12.19105 14441 ft 333 kts 273°
2026-05-06 20:42 47.41087 12.15727 14086 ft 332 kts 274°
2026-05-06 20:43 47.41399 12.12378 13738 ft 332 kts 274°
2026-05-06 20:43 47.41714 12.08989 13366 ft 331 kts 274°
2026-05-06 20:43 47.42024 12.05643 12992 ft 329 kts 274°
2026-05-06 20:43 47.42331 12.02325 12616 ft 328 kts 274°
2026-05-06 20:44 47.42637 11.98993 12267 ft 326 kts 274°
2026-05-06 20:44 47.42507 11.95715 11915 ft 318 kts 249°
2026-05-06 20:44 47.41380 11.93021 11562 ft 313 kts 223°
2026-05-06 20:44 47.39642 11.91138 11193 ft 304 kts 213°
2026-05-06 20:45 47.37880 11.89484 10837 ft 297 kts 212°
2026-05-06 20:45 47.36149 11.87914 10509 ft 290 kts 211°
2026-05-06 20:45 47.34464 11.86367 10191 ft 284 kts 218°
2026-05-06 20:45 47.33314 11.84071 9884 ft 281 kts 247°
2026-05-06 20:46 47.32679 11.81389 9518 ft 278 kts 251°
2026-05-06 20:46 47.32232 11.78682 9147 ft 262 kts 256°
2026-05-06 20:46 47.31875 11.76174 8729 ft 244 kts 256°
2026-05-06 20:46 47.31534 11.73767 8394 ft 234 kts 256°
2026-05-06 20:47 47.31220 11.71545 7973 ft 215 kts 256°
2026-05-06 20:47 47.30926 11.69460 7597 ft 199 kts 256°
2026-05-06 20:47 47.30657 11.67555 7263 ft 185 kts 255°
2026-05-06 20:47 47.30399 11.65746 6988 ft 177 kts 255°
2026-05-06 20:48 47.30146 11.63973 6987 ft 177 kts 256°
2026-05-06 20:48 47.29893 11.62188 6983 ft 179 kts 256°
2026-05-06 20:48 47.29640 11.60411 6970 ft 178 kts 255°
2026-05-06 20:48 47.29384 11.58623 6963 ft 179 kts 255°
2026-05-06 20:49 47.29125 11.56811 6964 ft 180 kts 255°
2026-05-06 20:49 47.28866 11.55004 6888 ft 183 kts 255°
2026-05-06 20:49 47.28605 11.53175 6886 ft 184 kts 255°
2026-05-06 20:49 47.28338 11.51323 6919 ft 186 kts 255°
2026-05-06 20:50 47.28067 11.49451 6924 ft 187 kts 255°
2026-05-06 20:50 47.27794 11.47594 6916 ft 187 kts 255°
2026-05-06 20:50 47.27522 11.45707 6912 ft 186 kts 255°
2026-05-06 20:50 47.27251 11.43849 6908 ft 187 kts 255°
2026-05-06 20:51 47.26970 11.41991 6905 ft 186 kts 255°
2026-05-06 20:51 47.26685 11.40120 6907 ft 188 kts 255°
2026-05-06 20:51 47.26373 11.38129 6955 ft 210 kts 255°
2026-05-06 20:51 47.26045 11.36021 6923 ft 215 kts 255°
2026-05-06 20:52 47.25716 11.33841 6908 ft 216 kts 255°
2026-05-06 20:52 47.25390 11.31677 6912 ft 216 kts 255°
2026-05-06 20:52 47.25052 11.29524 6934 ft 217 kts 254°
2026-05-06 20:52 47.24703 11.27285 7173 ft 238 kts 253°
2026-05-06 20:53 47.24335 11.24923 8190 ft 229 kts 255°
2026-05-06 20:53 47.24201 11.22741 8736 ft 213 kts 283°
2026-05-06 20:53 47.24961 11.20876 8840 ft 224 kts 308°
2026-05-06 20:53 47.25879 11.19000 8813 ft 229 kts 303°
2026-05-06 20:54 47.26817 11.17093 8801 ft 231 kts 316°
2026-05-06 20:54 47.28255 11.16170 9033 ft 230 kts
2026-05-06 20:54 47.29709 11.16949 9670 ft 231 kts 46°
2026-05-06 20:54 47.30478 11.18974 10287 ft 235 kts 87°
2026-05-06 20:55 47.30279 11.21357 10904 ft 243 kts 108°
2026-05-06 20:55 47.29838 11.23829 11446 ft 258 kts 108°
2026-05-06 20:55 47.29374 11.26429 11971 ft 263 kts 108°
2026-05-06 20:55 47.29001 11.29038 12464 ft 267 kts 98°
2026-05-06 20:56 47.29015 11.31813 12923 ft 273 kts 87°
2026-05-06 20:56 47.29286 11.34611 12981 ft 277 kts 82°
2026-05-06 20:56 47.29680 11.37352 12997 ft 275 kts 79°
2026-05-06 20:56 47.30132 11.40084 13005 ft 275 kts 78°
2026-05-06 20:57 47.30613 11.42826 13008 ft 276 kts 78°
2026-05-06 20:57 47.31103 11.45544 13010 ft 276 kts 78°
2026-05-06 20:57 47.31600 11.48263 13013 ft 276 kts 78°
2026-05-06 20:57 47.32097 11.50973 13019 ft 276 kts 78°
2026-05-06 20:58 47.32600 11.53717 13030 ft 277 kts 78°
2026-05-06 20:58 47.33106 11.56473 13031 ft 278 kts 78°
2026-05-06 20:58 47.33610 11.59219 13033 ft 278 kts 78°
2026-05-06 20:58 47.34106 11.61932 13036 ft 278 kts 77°
2026-05-06 20:59 47.34611 11.64689 13046 ft 278 kts 78°
2026-05-06 20:59 47.35116 11.67456 13039 ft 279 kts 78°
2026-05-06 20:59 47.35614 11.70183 13025 ft 279 kts 79°
2026-05-06 20:59 47.36117 11.72945 13023 ft 279 kts 79°
2026-05-06 21:00 47.36624 11.75742 12808 ft 284 kts 78°
2026-05-06 21:00 47.37136 11.78557 12290 ft 286 kts 78°
2026-05-06 21:00 47.37630 11.81267 12348 ft 270 kts 78°
2026-05-06 21:00 47.38121 11.83972 12362 ft 272 kts 78°
2026-05-06 21:01 47.38616 11.86671 12162 ft 277 kts 78°
2026-05-06 21:01 47.39109 11.89396 11617 ft 281 kts 78°
2026-05-06 21:01 47.39606 11.92183 11083 ft 283 kts 78°
2026-05-06 21:01 47.40092 11.94962 10968 ft 266 kts 78°
2026-05-06 21:02 47.40545 11.97553 11011 ft 260 kts 78°
2026-05-06 21:02 47.41069 12.00122 11011 ft 266 kts 63°
2026-05-06 21:02 47.42337 12.02111 10825 ft 275 kts 28°
2026-05-06 21:02 47.44022 12.03335 10908 ft 267 kts 30°
2026-05-06 21:03 47.45623 12.04693 10894 ft 269 kts 30°
2026-05-06 21:03 47.47347 12.05683 10909 ft 269 kts
2026-05-06 21:03 47.49191 12.05460 10928 ft 267 kts 354°
2026-05-06 21:03 47.51059 12.05342 10798 ft 269 kts 355°
2026-05-06 21:04 47.52912 12.05229 10614 ft 261 kts 349°
2026-05-06 21:04 47.54442 12.04242 10606 ft 226 kts 308°
2026-05-06 21:04 47.55045 12.02310 10703 ft 201 kts 264°
2026-05-06 21:04 47.54551 12.00478 10717 ft 196 kts 220°
2026-05-06 21:05 47.53521 11.99169 10685 ft 196 kts 221°
2026-05-06 21:05 47.52385 11.98089 10683 ft 196 kts 198°
2026-05-06 21:05 47.51070 11.97541 10682 ft 199 kts 197°
2026-05-06 21:05 47.49712 11.96961 10269 ft 207 kts 197°
2026-05-06 21:06 47.48312 11.96349 9879 ft 210 kts 198°
2026-05-06 21:06 47.46920 11.95729 9537 ft 210 kts 198°
2026-05-06 21:06 47.45562 11.95119 9489 ft 196 kts 198°
2026-05-06 21:06 47.44271 11.94537 9475 ft 192 kts 198°
2026-05-06 21:07 47.43077 11.93697 9499 ft 195 kts 227°
2026-05-06 21:07 47.42242 11.92105 9500 ft 199 kts 233°
2026-05-06 21:07 47.41447 11.90455 9484 ft 196 kts 234°
2026-05-06 21:07 47.40686 11.88861 9486 ft 179 kts 234°
2026-05-06 21:08 47.40012 11.87440 9479 ft 162 kts 234°
2026-05-06 21:08 47.39377 11.86102 9460 ft 159 kts 233°
2026-05-06 21:08 47.38734 11.84744 9468 ft 162 kts 234°
2026-05-06 21:08 47.38088 11.83378 9466 ft 164 kts 233°
2026-05-06 21:09 47.37521 11.81924 9465 ft 167 kts 245°
2026-05-06 21:09 47.37074 11.80328 9463 ft 170 kts 245°
2026-05-06 21:09 47.36617 11.78688 9143 ft 172 kts 245°
2026-05-06 21:09 47.36173 11.77091 8735 ft 168 kts 244°
2026-05-06 21:10 47.35735 11.75515 8336 ft 164 kts 244°
2026-05-06 21:10 47.35317 11.74007 8028 ft 155 kts 244°
2026-05-06 21:10 47.34920 11.72576 7777 ft 147 kts 244°
2026-05-06 21:10 47.34544 11.71225 7680 ft 143 kts 244°
2026-05-06 21:11 47.34161 11.69850 7484 ft 147 kts 244°
2026-05-06 21:11 47.33771 11.68447 7244 ft 147 kts 244°
2026-05-06 21:11 47.33385 11.67061 6999 ft 147 kts 244°
2026-05-06 21:11 47.33001 11.65680 6749 ft 149 kts 244°
2026-05-06 21:12 47.32599 11.64238 6496 ft 152 kts 244°
2026-05-06 21:12 47.32210 11.62840 6194 ft 144 kts 245°
2026-05-06 21:12 47.31844 11.61524 5916 ft 137 kts 245°
2026-05-06 21:12 47.31482 11.60229 5694 ft 136 kts 245°
2026-05-06 21:13 47.31126 11.58954 5521 ft 134 kts 244°
2026-05-06 21:13 47.30772 11.57685 5387 ft 134 kts 245°
2026-05-06 21:13 47.30418 11.56414 5222 ft 133 kts 244°
2026-05-06 21:13 47.30072 11.55171 5059 ft 132 kts 244°
2026-05-06 21:14 47.29724 11.53928 4906 ft 131 kts 244°
2026-05-06 21:14 47.29375 11.52685 4687 ft 131 kts 244°
2026-05-06 21:14 47.29034 11.51465 4476 ft 129 kts 244°
2026-05-06 21:14 47.28696 11.50256 4277 ft 128 kts 244°
2026-05-06 21:15 47.28359 11.49055 4083 ft 128 kts 244°
2026-05-06 21:15 47.28005 11.47792 3911 ft 136 kts 245°
2026-05-06 21:15 47.27642 11.46489 3700 ft 137 kts 245°
2026-05-06 21:15 47.27279 11.45183 3467 ft 138 kts 245°
2026-05-06 21:16 47.27031 11.43804 3241 ft 141 kts 256°
2026-05-06 21:16 47.26859 11.42386 3004 ft 140 kts 259°
2026-05-06 21:16 47.26707 11.40998 2750 ft 138 kts 261°
2026-05-06 21:16 47.26578 11.39622 2551 ft 132 kts 261°
2026-05-06 21:17 47.26439 11.38302 2344 ft 130 kts 261°
2026-05-06 21:17 47.26296 11.36987 2159 ft 131 kts 263°
2026-05-06 21:17 47.26157 11.35678 1944 ft 125 kts 262°
2026-05-06 21:17 47.26037 11.34558 1912 ft 86 kts 262°
2026-05-06 21:18 47.25981 11.34002 1914 ft 40 kts 261°
2026-05-06 21:18 47.25941 11.33729 1916 ft 8 kts 241°
2026-05-06 21:18 47.25897 11.33713 1916 ft 8 kts 139°
2026-05-06 21:18 47.25857 11.33783 1915 ft 10 kts 126°
2026-05-06 21:19 47.25797 11.33911 1915 ft 17 kts 119°
2026-05-06 21:19 47.25773 11.34084 1914 ft 18 kts 81°
2026-05-06 21:19 47.25793 11.34271 1913 ft 18 kts 81°
2026-05-06 21:19 47.25814 11.34466 1912 ft 20 kts 80°
2026-05-06 21:20 47.25834 11.34652 1912 ft 10 kts 80°
2026-05-06 21:20 47.25839 11.34697 1911 ft 1 kts 81°
2026-05-06 21:20 47.25840 11.34711 1911 ft 1 kts 80°
2026-05-06 21:20 47.25843 11.34737 1911 ft 5 kts 81°
2026-05-06 21:21 47.25853 11.34831 1911 ft 12 kts 81°
2026-05-06 21:21 47.25866 11.34944 1910 ft 5 kts 80°
2026-05-06 21:21 47.25850 11.34980 1910 ft 5 kts 159°
2026-05-06 21:21 47.25825 11.34990 1910 ft 2 kts 169°
2026-05-06 21:22 47.25822 11.34990 1910 ft 0 kts 169°